VICTUS HAZE PUMA

Last updated on Sat Sep 05 2026 00:03:45 GMT+0000 (Coordinated Universal Time)

1 69646U 26142A 26247.61922949 .00001860 00000+0 86030-4 0 9994 2 69646 97.4535 144.2946 0014172 178.8804 181.2466 15.21333352 11746
UTC large
Height (km)
Speed (km/s)
/
Latitude / Longitude
Inclination (degrees)
Orbital Period (minutes)
Azimuth
Elevation
Range (km)
Doppler Factor

Next 0 passes for location: London (51.5072 / 0.1276)

No passes found over London.
VICTUS HAZE PUMA